Regional Weather Roundup
Issued by NWS

Home | Current Version | Previous Version | Text Only | Print | Product List | Glossary Off
Versions: 1 2 3 4 5 6 7 8 9 10 11 12 13 14 15 16 17 18 19 20 21 22 23 24 25 26 27 28 29 30 31 32 33 34 35 36 37 38 39 40 41 42 43 44 45 46 47 48 49 50

000
ASUS45 KBOU 231307
RWRCO

WEATHER ROUNDUP FOR COLORADO
NATIONAL WEATHER SERVICE DENVER/BOULDER CO
700 AM MDT MON MAY 23 2016

NOTE: "FAIR" INDICATES FEW OR NO CLOUDS BELOW 12000 FEET WITH NO
SIGNIFICANT WEATHER AND/OR OBSTRUCTIONS TO VISIBILITY.

COZ001>005-013-030-031-231400-
...NORTHWEST COLORADO...

CITY           SKY/WX    TMP DP  RH WIND       PRES   REMARKS
CRAIG          FAIR      32  29  88 CALM      30.03S
HAYDEN         FAIR      36  28  75 E8        30.02S
MEEKER         FAIR      35  30  82 CALM      30.01S
MOUNT WERNER   NOT AVBL
STEAMBOAT SPGS FAIR      32  29  90 CALM      30.03S
WALDEN         FAIR      32  28  86 E3        30.05S
$$

COZ006>008-011-231400-
...WEST CENTRAL VALLEYS...

CITY           SKY/WX    TMP DP  RH WIND       PRES   REMARKS
GRAND JUNCTION FAIR      43  29  57 CALM      29.93R
MONTROSE       FAIR      42  27  55 SE7       29.98S
EAGLE          SUNNY     36  27  69 E7        30.05S
RIFLE          FAIR      39  30  70 CALM      29.99R
DELTA          FAIR      46  26  45 NE3       29.96R
NUCLA          FAIR      41  28  60 E3        29.99R
$$

COZ017>023-064>068-231400-
...SOUTHWEST COLORADO...

CITY           SKY/WX    TMP DP  RH WIND       PRES   REMARKS
DURANGO        FAIR      38  27  64 NE3       30.02R
CORTEZ         FAIR      37  29  72 CALM      29.98R
PAGOSA SPRINGS FAIR      40  27  59 CALM      30.07R
TELLURIDE      FAIR      39  21  48 SE3       30.07S
WOLF CREEK PAS FAIR      28  18  64 SW18G25   30.19S WCI  16
$$

COZ009-010-012-014-032>034-037-058>063-231400-
...CENTRAL COLORADO...

CITY           SKY/WX    TMP DP  RH WIND       PRES   REMARKS
ASPEN          FAIR      35  25  66 S3        30.02S
BUENA VISTA    FAIR      40  25  56 N3        30.04R
COPPER MTN     NOT AVBL
BERTHOUD PASS  FAIR      28  18  64 S6        30.17R WCI  22
COTTONWOOD PAS FAIR      43  19  39 CALM      30.09R
GUNNISON       FAIR      36  23  60 CALM      30.07R
KREMMLING      FAIR      34  30  86 CALM      30.06S
LEADVILLE      FAIR      30  21  69 E3        30.07S
MONARCH PASS   FAIR      32  18  55 MISG      30.27R
SALIDA         FAIR      43  25  49 NW6       30.10S
SUNLIGHT       FAIR      34  19  55 CALM      30.14S
WILKERSON PASS FAIR      34  18  51 S8        30.17R WCI  27
$$

COZ069>075-231400-
...SAN LUIS VALLEY/SANGRE DE CRISTO MOUNTAINS...

CITY           SKY/WX    TMP DP  RH WIND       PRES   REMARKS
ALAMOSA        FAIR      44  26  49 SW9       30.02S
LA VETA PASS   FAIR      37  21  52 S3        30.16R
SAGUACHE       FAIR      39  27  60 NW10      30.05R
$$

COZ035-036-038>040-231400-
...NORTHERN COLORADO FRONT RANGE...

CITY           SKY/WX    TMP DP  RH WIND       PRES   REMARKS
DENVER INTL AP FAIR      45  38  76 S10       29.96R
DMNS CITY PARK   N/A     51  34  52 SE13      29.96S
AURORA         MOSUNNY   46  35  67 S8        29.97R
FRONT RANGE AP MOSUNNY   43  36  75 S6        29.97
ERIE MUNI ARPT FAIR      50  42  73 S3        29.96R
BOULDER MUN AP FAIR      48  43  81 CALM      29.96R
CENTENNIAL     FAIR      47  33  58 S10       29.97R
BROOMFIELD     MOSUNNY   50  37  62 SE8       29.97R
FORT COLLINS   FAIR      48  41  76 S5        29.96S
LONGMONT       FAIR      51  45  80 CALM      29.97S
$$

COZ041-046-047-076>085-087-088-231400-
...PIKES PEAK/PALMER DIVIDE AND SOUTHERN FOOTHILLS...

CITY           SKY/WX    TMP DP  RH WIND       PRES   REMARKS
COLO. SPRINGS  FAIR      49  28  44 NW6       30.01R
A. F. ACADEMY  FAIR      43  36  75 N5        30.00R
SCHRIEVER AFB  NOT AVBL
ELLICOTT       FAIR     N/A N/A N/A E23       29.97R
FALCON         FAIR      46  28  49 NE9       30.02R
FORT CARSON    FAIR      50  39  67 E3        29.99R
LIMON          FAIR      51  32  48 CALM      29.96R
MONUMENT HILL  FAIR      41  32  70 SE10      30.03R
TRINIDAD       CLOUDY    49  39  68 W5        29.99R
$$

COZ042>045-048>051-090-091-231400-
...NORTHEAST COLORADO...

CITY           SKY/WX    TMP DP  RH WIND       PRES   REMARKS
GREELEY ARPT   FAIR      52  43  71 CALM      29.96R
AKRON          FAIR      49  37  63 N5        29.95R
BURLINGTON     FAIR      53  44  71 N8        29.92R
WRAY           FAIR      54  46  76 NW5       29.92R
STERLING       FAIR      52  36  54 CALM      29.92R
HOLYOKE        FAIR      59  45  58 NW5       29.92S
FORT MORGAN    PTSUNNY   48  36  63 W6        29.96R
$$

COZ086-089-092>099-231400-
...SOUTHEAST COLORADO...

CITY           SKY/WX    TMP DP  RH WIND       PRES   REMARKS
PUEBLO         FAIR      56  37  49 N6        29.97R
LA JUNTA       FAIR      59  35  40 VRB5      29.91R
LAMAR          FAIR      58  49  72 NE10      29.84R
SPRINGFIELD      N/A     54  50  86 NW17G24   29.87R
$$



USA.gov is the U.S. government's official web portal to all federal, state and local government web resources and services.